C/1997 L2 ( SOHO )

Japanese version
Home page
Updated on June 20, 1997

---------------------------------------------------------------------

* Profile

Discovery Date June 10, 1997
Magnitude 5 mag
Discoverer SOHO-LASCO coronagraphs C2 and C3

* Orbital Elements

T 1997 June 10.97523 TT                                 Marsden
q   0.0430141            (2000.0)            P               Q
                   Peri.   66.38986     -0.16952355     -0.39694522
                   Node    72.79319     +0.08866097     -0.91773027
e   1.0            Incl.   70.78943     +0.98152993     +0.01434016
>From 18 observations 1997 June 10-11.

* Finding Charts

* 1997 June 1 - 1997 July 31

* Magnitudes Graph

        m1 = 21.0 + 5 log d + 12.5 log r

---------------------------------------------------------------------

The orbital elements are calculated by Dr. Brian G. Marsden and printed on M.P.E.C. 1997-M06.
The charts are made with StellaNavigator Ver.2.0 for Windows (AstroArts / ASCII).
The magnitudes graphs are made with Comet for Windows.

---------------------------------------------------------------------

Copyright(C) Seiichi Yoshida (comet@aerith.net). All rights reserved.